Location: ????????
(55.0808°N, 38.5463°E)
Time: 02:26:01
(UTC+00:00)

Nimbus 3 Rocket - Pass Details

Date: 25 September 2024
Orbit: 1072 x 1131 km, 99.9° (Epoch: 03 October)

Event Time Altitude Azimuth Distance (km) Brightness Sun altitude
Rises 21:56:36 0° 18° (NNE) 3,909 9.2 -35.6°
Reaches altitude 10° 21:59:09 10° 18° (NNE) 2,942 8.3 -35.6°
Enters shadow 22:04:33 62° 12° (NNE) 1,211 5.5 -35.4°
